Regional Weather Roundup
Issued by NWS

Home | Current Version | Previous Version | Text Only | Print | Product List | Glossary On
Versions: 1 2 3 4 5 6 7 8 9 10 11 12 13 14 15 16 17 18 19 20 21 22 23 24 25 26 27 28 29 30 31 32 33 34 35 36 37 38 39 40 41 42 43 44 45 46 47 48 49 50
000
ASUS42 KFFC 291610
RWRGA
WEATHER ROUNDUP FOR GEORGIA
NATIONAL WEATHER SERVICE PEACHTREE CITY GA
1200 PM EDT THU JUN 29 2017

NOTE: "FAIR" INDICATES FEW OR NO CLOUDS BELOW 12,000 FEET WITH NO
SIGNIFICANT WEATHER AND/OR OBSTRUCTIONS TO VISIBILITY.

* = USE WITH CAUTION. THE STATIONS MARKED WITH AN ASTERISK MAY NOT
REPORT WEATHER SUCH AS PRECIPITATION, FOG, OR THUNDER AND ARE NOT
QUALITY CONTROLLED BY NWS.

THE REMARK "TC" DENOTES TEMPERATURE READING IN DEGREES CELSIUS.

GAZ001>058-291700-
NORTH GEORGIA

CITY           SKY/WX    TMP DP  RH WIND       PRES   REMARKS
ATLANTA        PTSUNNY   79  70  74 S9        30.17S
ATHENS         PTSUNNY   80  72  76 S3        30.19S
CHAMBLEE       CLOUDY    79  69  71 S8        30.17S
PEACHTREE CITY CLOUDY    79  71  76 SE10      30.16F
ROME           CLOUDY    79  72  79 SE7       30.14S
WEST ATLANTA   PTSUNNY   81  72  74 S8        30.15F
GAINESVILLE    CLOUDY    76  70  82 VRB6      30.22S
CARTERSVILLE   CLOUDY    79  72  79 VRB6      30.15F


CITY           SKY/WX    TMP DP  RH WIND       PRES   REMARKS
DALTON*        CLOUDY    77  72  83 SE6       30.16S
LAWRENCEVILLE* PTSUNNY   79  72  78 SE7       30.19F
MARIETTA       PTSUNNY   78  69  73 SE10      30.16F
KENNESAW*      PTSUNNY   81  70  69 SE5       30.19F
CANTON*        LGT RAIN  75  72  88 CALM      30.20S
$$

GAZ059>098-102>109-291700-
CENTRAL GEORGIA

CITY           SKY/WX    TMP DP  RH WIND       PRES   REMARKS
AUGUSTA-BUSH   PTSUNNY   87  70  56 SE7       30.17S HX  92
AUGUSTA-DANIEL MOSUNNY   86  65  49 S10       30.19S
COLUMBUS       CLOUDY    80  73  79 SE6       30.13S
MACON          PTSUNNY   83  71  67 SE9       30.15F
ROBINS AFB     PTSUNNY   82  73  73 SE6       30.14F


CITY           SKY/WX    TMP DP  RH WIND       PRES   REMARKS
LAGRANGE*      CLOUDY    77  77  98 SE6       30.14F
SYLVANIA*      MOSUNNY   84  74  70 SE5       30.19S HX  91
MILLEDGEVILLE* PTSUNNY   84  72  65 SE8       30.16F
$$

GAZ099>101-110>166-291700-
SOUTH GEORGIA

CITY           SKY/WX    TMP DP  RH WIND       PRES   REMARKS
SAVANNAH       CLOUDY    85  70  60 SE16G23   30.17S
VALDOSTA       PTSUNNY   84  73  69 SE7       30.13S HX  90
ALMA           PTSUNNY   85  73  67 SE6       30.14S HX  91
ST SIMONS      PTSUNNY   84  76  76 E12       30.16R HX  93
FT STEWART     PTSUNNY   78  71  81 E7        30.15S
ALBANY         CLOUDY    84  74  71 VRB5      30.14S HX  91
HUNTER AFB     CLOUDY    83  73  71 E13       30.15S HX  90
MOODY AFB      PTSUNNY   85  74  68 E7        30.12S HX  92
BRUNSWICK      PTSUNNY   84  77  79 E9        30.16S HX  94


CITY           SKY/WX    TMP DP  RH WIND       PRES   REMARKS
BAINBRIDGE*    CLOUDY    86  79  79 S5        30.11S HX  99
MOULTRIE*      CLOUDY    82  73  74 SE7       30.14R
VIDALIA*       PTSUNNY   84  73  70 E8        30.16F HX  91
WAYCROSS*      PTSUNNY   88  78  72 E6        30.14F HX 102
DOUGLAS*       PTSUNNY   86  70  58 SE6       30.15F HX  90
$$




USA.gov is the U.S. government's official web portal to all federal, state and local government web resources and services.